Calgary, Alberta

3:01 PM MDT on October 18, 2017 (GMT -0600)
Calgary International

Weather History for CYYC - November, 2012

Change the Weather History Date:

Friday, November 30, 2012

  Actual Average Record
Temperature  
Mean Temperature 12 °F -  
Max Temperature 17 °F 28 °F 55 °F (2002)
Min Temperature 6 °F 6 °F -13 °F (2014)
Degree Days  
Heating Degree Days 54    
Moisture  
Dew Point 6 °F    
Average Humidity 86    
Maximum Humidity 93    
Minimum Humidity 74    
Precipitation  
Precipitation 0.02 in 0.02 in - ()
Sea Level Pressure  
Sea Level Pressure 29.83 in    
Wind  
Wind Speed 11 mph ()    
Max Wind Speed 21 mph    
Max Gust Speed 25 mph    
Visibility 5.0 miles    
Events Fog , Snow    
Averages and records for this station are not official NWS values.
T = Trace of Precipitation, MM = Missing Value Source: Averaged Metar Reports

Daily Weather History Graph

Daily Weather History Graph

Search for Another Location

Airport or City:

Trip Planner

Search our weather history database for the weather conditions in past years. The results will help you decide how hot, cold, wet, or windy it might be!

Date:

Astronomy

Nov. 30, 2012 Rise Set
Actual Time 8:17 AM MST 4:32 PM MST
Civil Twilight 7:38 AM MST 5:11 PM MST
Nautical Twilight 6:56 AM MST 5:52 PM MST
Astronomical Twilight 6:16 AM MST 6:32 PM MST
Moon 6:32 PM MST (11/30) 9:51 AM MST (11/30)
Length of Visible Light 9h 32m
Length of Day
8h 15m
Waning Gibbous, 96% of the Moon is Illuminated
Nov 30
Waning Gibbous
Dec 6
Last Quarter
Dec 13
New
Dec 19
First Quarter
Dec 28
Full

Hourly Weather History & Observations

Time (MST) Temp. Windchill Dew Point Humidity Pressure Visibility Wind Dir Wind Speed Gust Speed Precip Events Conditions
12:00 AM 14.0 °F -0.2 °F 10.4 °F 86% 29.82 in 0.5 mi South 12.7 mph - N/A Fog Light Freezing Fog
1:00 AM 14.0 °F 1.2 °F 12.2 °F 93% 29.79 in 1.5 mi SSW 10.4 mph 18.4 mph N/A   Mostly Cloudy
1:36 AM 12.2 °F -2.5 °F 10.4 °F 92% 29.79 in 3.0 mi SSW 12.7 mph 19.6 mph N/A   Scattered Clouds
2:00 AM 12.2 °F -1.8 °F 8.6 °F 85% 29.77 in 7.0 mi SSW 11.5 mph 18.4 mph N/A   Scattered Clouds
3:00 AM 14.0 °F -1.4 °F 10.4 °F 86% 29.74 in 15.0 mi SSW 15.0 mph - N/A   Mostly Cloudy
4:00 AM 15.8 °F 2.1 °F 14.0 °F 93% 29.71 in 15.0 mi SSW 12.7 mph - N/A   Mostly Cloudy
5:00 AM 17 °F - 15 °F 88% 29.70 in 15 mi SSW 11.5 mph - -   Scattered Clouds
5:00 AM 17.6 °F 4.3 °F 15.8 °F 93% 29.70 in 15.0 mi SSW 12.7 mph - N/A   Mostly Cloudy
6:00 AM 10.4 °F -7.2 °F 6.8 °F 85% 29.78 in 15.0 mi North 17.3 mph - N/A   Scattered Clouds
6:33 AM 8.6 °F -10.5 °F 6.8 °F 92% 29.78 in 3.0 mi North 19.6 mph - N/A   Mostly Cloudy
7:00 AM 8.6 °F -11.0 °F 5.0 °F 85% 29.77 in 2.5 mi North 20.7 mph - N/A   Mostly Cloudy
7:16 AM 8.6 °F -10.5 °F 6.8 °F 92% 29.79 in 3.0 mi NNW 19.6 mph - N/A   Mostly Cloudy
8:00 AM 8.6 °F -10.0 °F 5.0 °F 85% 29.81 in 4.0 mi NNW 18.4 mph 25.3 mph N/A   Overcast
9:00 AM 8.6 °F -8.9 °F 5.0 °F 85% 29.81 in 5.0 mi North 16.1 mph 23.0 mph N/A   Overcast
10:00 AM 8.6 °F -9.5 °F 5.0 °F 85% 29.83 in 5.0 mi North 17.3 mph - N/A Snow Light Snow
11:00 AM 9 °F - 6 °F 79% 29.84 in 5 mi NNW 18.4 mph - - Snow Light Snow
11:00 AM 8.6 °F -9.5 °F 5.0 °F 85% 29.84 in 5.0 mi NNW 17.3 mph 23.0 mph N/A Snow Light Snow
12:00 PM 8.6 °F -11.0 °F 5.0 °F 85% 29.81 in 4.0 mi NNW 20.7 mph - N/A Snow Light Snow
12:47 PM 8.6 °F -10.5 °F 5.0 °F 85% 29.81 in 5.0 mi NNW 19.6 mph - N/A Snow Light Snow
1:00 PM 8.6 °F -10.0 °F 5.0 °F 85% 29.81 in 1.0 mi North 18.4 mph - N/A Snow Light Snow
1:13 PM 8.6 °F -7.7 °F 5.0 °F 85% 29.82 in 0.8 mi NNW 13.8 mph - N/A Snow Light Snow
1:35 PM 8.6 °F -7.7 °F 5.0 °F 85% 29.81 in 3.0 mi NNW 13.8 mph - N/A Snow Light Snow
2:00 PM 8.6 °F -5.5 °F 5.0 °F 85% 29.83 in 5.0 mi North 10.4 mph 19.6 mph N/A Snow Light Snow
3:00 PM 8.6 °F -2.6 °F 5.0 °F 85% 29.83 in 7.0 mi North 6.9 mph - N/A Snow Light Snow
4:00 PM 8.6 °F -4.7 °F 3.2 °F 79% 29.84 in 5.0 mi NNE 9.2 mph - N/A Snow Light Snow
5:00 PM 8 °F - 4 °F 74% 29.86 in 4 mi NNE 9.2 mph - - Snow Light Snow
5:00 PM 6.8 °F -6.9 °F 3.2 °F 85% 29.86 in 4.0 mi NNE 9.2 mph - N/A Snow Light Snow
5:31 PM 6.8 °F -5.9 °F 3.2 °F 85% 29.86 in 4.0 mi North 8.1 mph - N/A Snow Light Snow
6:00 PM 6.8 °F -5.9 °F 3.2 °F 85% 29.89 in 3.0 mi NNE 8.1 mph - N/A Snow Light Snow
7:00 PM 6.8 °F -5.9 °F 3.2 °F 85% 29.89 in 3.0 mi NNE 8.1 mph - N/A Snow Light Snow
7:42 PM 6.8 °F -4.8 °F 3.2 °F 85% 29.91 in 2.5 mi NNE 6.9 mph - N/A Snow Light Snow
8:00 PM 6.8 °F -3.5 °F 3.2 °F 85% 29.91 in 2.5 mi NNE 5.8 mph - N/A Snow Light Snow
8:11 PM 6.8 °F -3.5 °F 3.2 °F 85% 29.90 in 3.0 mi NNE 5.8 mph - N/A Snow Snow
8:32 PM 6.8 °F -2.0 °F 3.2 °F 85% 29.91 in 1.8 mi North 4.6 mph - N/A Snow Light Snow
9:00 PM 6.8 °F -3.5 °F 3.2 °F 85% 29.90 in 5.0 mi North 5.8 mph - N/A Snow Light Snow
10:00 PM 6.8 °F -2.0 °F 3.2 °F 85% 29.88 in 5.0 mi NNE 4.6 mph - N/A Snow Light Snow
10:36 PM 6.8 °F -2.0 °F 3.2 °F 85% 29.88 in 2.0 mi North 4.6 mph - N/A   Ice Crystals
11:00 PM 6 °F - 3 °F 83% 29.88 in 3 mi NNE 3.5 mph - - Snow Snow
11:00 PM 6.8 °F - 3.2 °F 85% 29.88 in 3.0 mi Calm Calm - N/A   Ice Crystals
11:07 PM 6.8 °F -0.1 °F 3.2 °F 85% 29.88 in 3.0 mi SE 3.5 mph - N/A Snow Light Snow
11:31 PM 6.8 °F - 3.2 °F 85% 29.88 in 4.0 mi SSE 2.3 mph - N/A Snow Light Snow Grains